Temperature
13 13 13 13 13 13 13 13 13 12 12 12 12 12 12 11 11 11 11 10 10 10 10 10 10 10 9 10 10 10 10 10 10 10 10 10 10 10 10 10 10 10 10
13 13 13 13 13 13 13 12 12 12 12 12 12 11 11 11 11 10 10 10 10 10 10 10 10 10 9 9 9 9 9 9 9 10 9 9 9 9 9 10 10 10 10
13 13 13 13 13 12 12 12 12 12 12 11 11 11 11 10 10 10 10 10 10 10 10 10 10 9 9 9 9 9 9 9 9 9 9 9 9 9 9 9 9 9 9
12 12 12 12 12 12 12 12 12 11 11 11 11 11 10 10 10 10 9 9 9 9 9 9 9 9 9 9 9 9 9 9 9 9 9 9 9 9 9 9 9 9 9
12 12 12 12 12 12 12 11 11 11 11 11 10 10 10 10 10 9 9 9 9 9 9 9 9 9 9 9 8 8 8 8 9 9 9 9 9 9 9 8 8 9 9
11 11 11 11 11 11 11 11 11 11 11 10 10 10 10 9 9 9 9 9 8 8 8 8 8 8 8 8 8 8 8 8 8 8 8 8 8 8 8 8 8 8 8
11 11 11 11 11 11 11 11 11 10 10 10 10 9 9 9 9 8 8 8 8 8 8 8 8 8 8 8 8 8 7 8 8 8 8 8 8 8 8 8 8 8 8
10 10 10 10 10 11 11 10 10 10 10 9 9 9 8 8 8 8 8 8 7 7 7 7 7 7 7 7 7 7 7 7 7 7 7 7 7 7 7 7 7 8 8
10 10 10 10 10 10 10 10 9 9 9 9 9 8 8 7 7 8 8 7 7 7 7 7 7 7 7 7 7 7 7 7 7 7 7 7 7 7 7 7 7 7 7
9 9 9 9 9 9 9 9 9 9 9 8 8 8 8 7 7 7 7 7 7 7 7 7 6 6 6 6 6 6 6 6 6 6 7 7 7 7 7 7 7 7 7
9 9 9 9 9 9 9 9 9 8 8 8 8 8 7 7 7 7 6 7 7 7 6 6 6 6 6 6 6 6 6 6 6 6 6 6 7 7 7 7 6 6 6
9 9 8 8 9 9 9 8 8 8 8 8 7 7 7 7 7 6 6 6 6 7 6 6 6 6 6 5 5 5 6 6 6 6 6 6 6 6 6 6 6 6 6
8 8 8 8 8 8 8 8 8 8 8 7 7 7 7 6 6 6 6 6 5 6 6 6 6 6 5 5 5 5 5 5 5 6 6 6 6 6 6 6 6 6 6
8 8 8 8 8 8 8 8 8 7 7 7 7 6 6 6 6 5 5 5 5 5 5 6 6 5 5 5 5 5 5 5 5 5 5 6 6 6 5 5 5 5 5
7 7 7 7 7 7 7 7 7 7 7 6 6 6 6 6 5 5 5 5 4 4 4 5 5 5 5 5 5 5 5 5 5 5 5 5 5 5 5 5 5 5 5
7 6 7 7 7 7 7 7 7 6 6 6 6 6 6 5 5 5 5 5 4 4 3 4 4 4 4 4 4 4 5 5 5 5 5 5 5 5 5 5 4 5 5
6 6 6 6 6 6 6 6 6 6 6 6 6 6 5 5 5 5 5 5 4 4 3 4 4 4 4 4 4 4 4 4 5 4 4 4 4 4 4 4 4 4 4
6 5 5 6 6 6 6 6 6 5 5 5 5 5 5 5 5 5 4 4 4 4 3 3 4 4 4 4 4 4 4 4 4 4 4 4 4 4 4 4 4 4 4
5 5 5 5 5 5 5 5 5 5 5 5 5 5 5 5 5 4 4 4 4 3 3 3 3 3 3 3 3 4 4 4 4 4 4 4 4 4 4 4 4 4 4
5 5 5 5 5 5 5 5 5 5 5 5 5 5 4 4 4 4 4 4 3 3 3 3 3 3 3 3 3 3 3 4 4 4 3 4 4 4 4 4 4 4 4
4 4 4 4 4 4 4 4 4 4 4 4 4 4 4 4 4 4 4 4 3 3 3 3 2 2 2 2 2 3 3 3 3 3 3 4 3 3 3 3 3 3 3
4 4 4 4 4 4 4 4 4 3 3 3 4 4 4 4 4 4 4 3 3 3 2 2 2 2 2 2 2 2 2 2 2 3 3 3 3 3 3 3 3 3 3
3 3 3 3 4 4 3 3 3 3 3 3 3 3 4 3 3 3 3 3 3 2 2 2 2 2 2 2 2 2 1 2 2 2 2 3 3 3 3 3 2 2 2
2 2 3 3 3 3 3 3 2 2 3 3 3 3 3 3 3 3 3 3 3 3 2 2 2 2 2 2 1 1 1 1 2 2 2 2 2 3 2 2 2 2 2
2 2 2 2 2 2 2 2 2 2 2 2 2 2 2 2 2 2 2 2 2 2 2 2 2 2 2 2 1 1 1 1 1 2 1 1 2 2 3 2 2 2 2
1 1 1 1 1 1 1 1 1 1 2 2 2 2 2 2 2 2 2 2 2 2 2 2 2 2 2 1 1 1 1 1 1 1 1 1 1 1 1 2 2 2 2
Wind_Speed
3 3 3 4 4 4 4 3 3 3 3 4 4 4 4 4 4 4 5 7 7 7 7 8 8 8 8 9 9 10 10 10 10 10 9 9 10 10 10 10 10 10 10
4 3 2 3 3 3 3 3 2 2 2 3 3 3 3 3 4 4 5 6 7 8 8 8 9 9 9 9 10 10 10 10 11 10 10 10 10 10 10 11 11 11 10
4 3 2 2 2 3 4 4 3 3 2 3 2 3 3 3 4 4 5 5 6 7 8 9 10 10 10 10 11 11 11 11 11 11 10 10 10 11 11 11 10 10 9
4 4 3 2 2 4 3 2 2 2 2 2 2 2 2 3 3 4 5 5 6 6 7 9 10 11 11 11 11 12 12 12 12 11 11 10 10 11 10 10 10 10 10
5 4 3 2 3 3 2 2 2 2 1 2 2 2 2 2 2 3 4 5 6 6 7 8 9 10 10 11 12 13 13 12 12 12 12 11 11 11 11 11 10 10 10
4 4 3 2 3 2 2 2 2 2 1 1 2 2 2 2 2 2 3 4 5 6 7 7 8 8 10 12 13 14 14 13 13 12 12 12 11 11 11 11 11 10 10
3 3 2 2 2 2 2 2 2 2 2 2 2 2 3 3 2 2 2 3 4 6 7 7 7 7 8 11 13 14 14 14 13 13 12 12 12 11 12 12 11 11 11
3 3 2 2 2 2 2 2 2 2 1 2 2 2 2 3 2 2 2 2 3 4 5 7 7 7 8 8 11 14 14 15 14 13 12 12 12 12 12 12 12 12 11
3 3 3 2 2 2 2 1 2 2 2 0 1 2 2 1 2 2 2 2 3 3 3 5 6 7 7 7 9 12 14 15 15 14 13 13 13 12 12 12 12 12 12
3 3 3 3 2 2 2 1 1 1 3 1 0 1 1 2 1 2 2 2 3 3 3 4 5 6 7 6 8 12 14 14 14 15 14 14 13 12 12 12 12 12 13
3 3 2 2 2 1 1 2 1 1 2 2 1 1 1 1 1 1 3 4 3 3 3 3 4 5 6 6 8 11 13 13 14 15 15 14 14 14 13 13 12 12 12
1 3 2 2 1 1 1 1 2 2 2 2 1 1 1 1 1 1 2 3 4 4 4 3 3 4 5 6 8 12 13 13 13 14 14 15 15 15 14 13 12 11 11
0 1 2 1 1 1 0 1 2 2 2 2 2 2 2 1 1 1 1 2 3 3 3 2 3 3 5 6 8 12 12 13 13 13 14 14 14 14 14 12 10 10 11
1 1 1 1 1 1 1 1 1 1 1 2 2 2 2 1 1 1 1 1 3 3 3 4 3 3 5 7 8 11 9 12 12 12 13 13 13 13 12 10 10 10 10
0 1 1 1 1 1 1 1 0 1 1 2 2 2 2 2 2 1 1 2 1 3 5 3 2 3 5 7 9 8 8 11 12 12 12 12 12 12 11 10 10 10 10
0 0 0 0 1 1 1 0 1 1 1 1 1 1 2 2 2 2 2 2 2 2 4 3 3 5 5 6 9 8 8 11 11 11 11 12 11 12 11 10 10 10 10
0 1 1 0 0 0 0 0 1 1 1 1 1 2 2 2 2 2 2 2 2 2 4 5 3 4 4 5 6 7 7 6 7 10 11 11 11 11 12 11 10 10 10
1 1 1 1 1 1 1 1 1 1 1 2 2 2 3 2 2 2 2 3 3 2 3 6 5 4 4 5 4 5 5 6 6 9 11 11 11 11 11 11 11 10 10
1 1 1 1 1 1 1 2 1 1 2 2 2 2 3 2 3 3 3 3 3 2 2 3 5 4 4 4 5 5 5 4 6 8 10 10 10 11 11 12 11 11 10
1 1 1 1 1 2 2 2 1 1 2 2 2 2 3 3 4 4 3 3 2 2 2 2 4 4 4 4 4 5 6 5 6 6 7 9 10 10 11 11 11 12 11
0 0 1 1 1 1 2 1 1 1 2 2 2 3 3 3 4 3 3 2 2 2 2 2 3 4 4 4 4 4 5 6 5 3 4 5 6 5 7 10 11 11 11
0 0 1 1 2 2 3 3 2 1 2 2 3 3 3 3 4 4 4 3 2 2 3 3 3 4 5 5 4 4 4 5 4 3 4 6 4 4 5 5 9 11 11
1 1 1 1 2 3 4 4 3 1 2 3 3 3 3 4 4 3 3 3 3 4 3 3 4 5 5 5 4 4 4 5 5 4 4 5 4 4 5 7 10 10 10
1 1 2 2 2 3 5 4 3 1 2 2 2 2 3 3 3 3 2 2 3 3 4 3 4 5 5 4 4 4 4 4 4 3 2 3 3 4 5 6 8 8 10
1 2 2 2 2 4 5 4 2 1 2 2 2 2 3 3 4 4 2 2 3 3 4 5 6 5 6 4 2 2 2 3 4 3 1 1 3 4 4 3 5 9 11
1 2 2 2 2 3 5 4 3 1 2 2 2 3 3 4 4 3 2 2 4 4 3 4 4 5 4 3 2 1 2 2 3 2 1 1 2 3 3 3 3 6 8
Wind_Direction
116 107 97 93 86 85 79 70 66 63 60 59 64 70 65 59 53 46 32 27 24 15 5 359 353 348 348 348 346 346 344 338 332 327 324 322 319 319 316 311 308 308 303
111 109 107 97 83 86 87 83 81 73 65 64 58 61 66 62 55 47 38 31 27 19 7 357 350 348 347 346 346 345 342 341 340 334 328 324 322 320 319 314 310 308 307
115 109 102 103 89 90 86 77 69 69 68 62 52 52 60 57 52 44 37 31 26 18 9 1 356 353 352 350 349 348 345 342 339 335 331 327 323 319 316 312 307 308 307
108 106 99 98 96 96 92 99 89 73 60 55 45 33 44 48 46 40 38 32 28 19 9 4 1 357 355 353 352 350 345 341 337 335 334 331 327 323 320 317 312 309 308
100 99 98 94 99 94 93 104 101 100 90 60 51 39 29 36 27 35 35 34 30 21 12 5 5 2 360 358 355 350 346 344 340 339 337 333 328 326 323 318 316 313 312
96 99 90 84 91 96 96 99 108 80 97 84 66 38 16 15 23 26 25 31 27 19 14 10 7 3 2 360 356 350 348 346 342 340 337 332 329 328 327 323 317 313 311
87 97 102 104 101 120 131 124 121 98 56 52 61 24 8 18 28 15 19 24 18 14 13 11 7 3 359 358 355 350 349 345 342 339 337 335 331 328 326 324 321 317 314
84 88 88 125 124 114 90 95 107 105 65 57 85 77 10 350 3 7 6 17 11 9 7 3 360 358 355 355 353 352 348 345 342 339 338 336 332 329 327 325 324 322 320
79 89 90 88 105 121 131 115 123 118 130 56 79 108 113 248 310 322 340 355 354 355 347 344 347 347 349 351 350 349 347 347 345 342 338 336 333 331 328 328 326 323 322
54 67 89 96 104 118 137 153 123 135 139 162 107 60 135 165 179 306 311 323 333 331 329 330 329 330 336 341 343 344 345 346 347 345 342 340 337 333 331 329 326 323 323
48 48 64 85 87 104 144 152 157 148 163 173 169 132 81 62 155 207 289 311 316 298 304 302 307 315 324 332 334 336 343 344 344 343 342 340 339 337 333 331 327 326 326
34 32 37 49 64 72 171 180 179 175 184 183 173 162 165 172 215 216 271 298 302 299 302 293 295 304 315 324 330 336 342 342 341 341 341 342 342 341 337 333 331 332 332
353 334 10 11 25 355 147 153 170 184 190 198 203 212 210 208 195 204 259 293 298 298 298 294 284 299 314 320 322 332 338 339 338 338 340 342 343 341 340 339 341 337 335
222 321 1 6 10 19 40 111 157 189 189 203 217 221 224 230 210 202 202 256 310 302 291 285 303 291 310 316 319 329 331 334 335 335 338 339 340 341 343 346 346 342 341
12 30 23 25 11 18 31 53 177 224 213 216 222 228 239 241 238 232 217 208 227 299 299 281 296 307 316 317 323 330 329 331 333 334 337 339 342 346 345 348 348 346 343
37 92 27 32 30 26 20 264 289 281 231 249 234 238 254 254 247 241 239 248 234 242 277 286 288 304 311 320 326 331 327 336 339 339 341 342 345 347 347 345 345 343 342
191 204 234 223 210 256 285 230 277 308 282 276 267 252 262 263 254 248 247 251 251 242 277 297 298 309 313 318 325 331 330 330 335 340 341 342 345 348 349 349 346 344 343
255 238 217 214 244 280 262 237 258 289 282 286 273 267 273 275 274 265 249 252 256 256 269 299 311 319 312 309 316 323 332 334 330 337 342 343 345 348 349 350 349 346 349
211 232 187 217 256 272 274 267 241 256 271 279 281 266 266 263 272 276 270 257 259 278 283 293 306 311 310 317 326 326 327 331 333 336 341 344 346 347 350 351 353 352 351
180 201 219 234 252 261 253 264 264 278 287 292 290 283 268 256 260 269 270 273 281 283 295 298 305 314 312 315 325 328 331 335 333 336 345 345 343 347 352 352 355 357 357
274 259 256 268 271 258 246 263 257 278 277 290 304 304 297 290 290 285 286 284 286 285 289 300 308 317 318 324 316 314 320 323 324 332 336 337 341 348 351 349 352 355 356
359 335 275 267 272 278 286 276 277 255 266 272 287 303 307 305 300 296 297 302 290 276 287 285 289 298 298 304 308 312 317 326 315 324 330 319 333 330 335 342 344 350 353
331 314 297 287 285 291 300 292 281 273 265 268 273 288 309 305 312 284 287 303 294 297 291 274 273 282 284 289 291 298 308 311 296 300 318 304 316 314 322 332 338 346 350
284 278 285 282 286 296 305 305 305 294 270 275 276 274 283 293 291 308 285 283 286 283 291 290 272 276 279 279 267 268 282 302 305 303 311 291 307 307 318 322 331 342 349
278 277 280 277 278 293 305 312 331 298 277 284 288 284 285 283 298 323 317 294 303 305 318 312 311 313 311 308 312 322 318 320 313 304 303 286 300 309 307 308 322 338 346
271 292 294 285 276 282 299 308 323 276 282 289 292 284 288 296 309 315 296 283 290 303 318 321 327 329 322 297 312 281 258 283 303 290 277 308 308 330 317 301 316 333 344
Height
1529 1529 1530 1530 1531 1531 1531 1532 1532 1532 1532 1532 1532 1532 1532 1532 1531 1531 1530 1530 1529 1528 1527 1526 1525 1524 1523 1521 1520 1518 1516 1515 1513 1512 1510 1509 1508 1507 1506 1504 1503 1502 1502
1527 1528 1529 1529 1530 1530 1531 1531 1531 1531 1531 1531 1531 1531 1531 1531 1531 1530 1529 1529 1528 1527 1526 1525 1524 1522 1521 1519 1518 1516 1514 1512 1511 1509 1507 1506 1505 1504 1503 1501 1500 1499 1498
1526 1526 1527 1528 1528 1529 1530 1530 1530 1530 1530 1530 1530 1530 1530 1530 1530 1529 1529 1528 1527 1526 1525 1523 1522 1520 1519 1517 1516 1514 1512 1510 1508 1507 1505 1503 1502 1501 1500 1498 1497 1496 1495
1524 1525 1525 1526 1527 1527 1528 1528 1528 1528 1528 1528 1528 1529 1529 1529 1529 1528 1527 1527 1526 1524 1523 1522 1520 1518 1517 1515 1513 1512 1510 1508 1506 1504 1502 1501 1499 1498 1496 1495 1494 1493 1492
1523 1523 1524 1525 1525 1526 1526 1527 1527 1527 1527 1527 1527 1527 1527 1528 1527 1527 1526 1525 1524 1523 1522 1520 1518 1517 1515 1513 1511 1509 1507 1505 1504 1502 1500 1498 1497 1495 1493 1492 1491 1490 1488
1521 1522 1522 1523 1524 1524 1525 1525 1526 1526 1526 1526 1526 1526 1526 1526 1526 1525 1525 1524 1523 1522 1520 1518 1517 1515 1513 1511 1509 1507 1505 1503 1501 1499 1497 1495 1494 1492 1490 1489 1488 1487 1485
1519 1520 1521 1521 1522 1523 1523 1524 1524 1525 1524 1524 1524 1524 1524 1524 1524 1524 1523 1522 1522 1520 1518 1517 1515 1513 1511 1509 1507 1504 1502 1500 1499 1497 1495 1493 1491 1489 1488 1486 1485 1483 1482
1517 1518 1518 1519 1520 1521 1521 1522 1522 1522 1522 1522 1522 1522 1522 1523 1522 1522 1521 1521 1520 1518 1517 1515 1513 1511 1509 1506 1504 1502 1500 1498 1496 1494 1492 1490 1488 1486 1484 1483 1481 1480 1479
1516 1516 1516 1517 1518 1518 1519 1520 1520 1520 1520 1521 1521 1521 1521 1521 1520 1520 1519 1519 1518 1516 1515 1513 1511 1509 1507 1504 1502 1500 1497 1495 1493 1491 1489 1487 1485 1483 1481 1480 1478 1477 1475
1514 1514 1515 1516 1516 1516 1517 1518 1518 1519 1519 1519 1519 1520 1520 1519 1519 1517 1517 1516 1516 1514 1513 1511 1509 1507 1505 1502 1500 1498 1495 1493 1491 1488 1486 1484 1482 1480 1478 1476 1475 1473 1472
1512 1512 1513 1513 1514 1515 1515 1516 1516 1517 1518 1518 1517 1517 1517 1518 1517 1516 1514 1513 1512 1512 1510 1509 1507 1505 1503 1500 1497 1495 1493 1490 1488 1486 1483 1481 1479 1477 1474 1473 1471 1470 1468
1510 1510 1511 1511 1512 1513 1513 1514 1514 1515 1515 1516 1516 1516 1515 1515 1515 1514 1512 1510 1509 1508 1507 1506 1504 1502 1500 1498 1495 1493 1490 1488 1486 1483 1481 1478 1476 1473 1471 1469 1467 1466 1465
1507 1508 1509 1509 1510 1511 1511 1512 1512 1512 1513 1513 1513 1513 1514 1514 1513 1513 1511 1509 1506 1505 1503 1503 1501 1500 1498 1495 1493 1490 1488 1485 1483 1480 1478 1475 1473 1470 1468 1465 1464 1463 1462
1505 1506 1507 1507 1508 1509 1509 1509 1509 1510 1510 1510 1510 1511 1511 1511 1511 1510 1510 1508 1504 1502 1501 1499 1498 1497 1495 1493 1490 1488 1485 1483 1480 1478 1475 1473 1470 1468 1465 1463 1462 1460 1459
1504 1504 1505 1505 1506 1506 1507 1507 1507 1507 1508 1508 1508 1508 1508 1509 1508 1508 1507 1506 1505 1501 1498 1496 1495 1494 1492 1490 1488 1485 1483 1480 1478 1476 1473 1471 1468 1466 1463 1461 1459 1458 1456
1501 1502 1502 1503 1503 1504 1504 1505 1505 1505 1505 1505 1505 1506 1505 1505 1505 1505 1504 1503 1502 1501 1497 1494 1493 1491 1489 1487 1485 1483 1480 1478 1475 1473 1471 1468 1466 1464 1461 1459 1457 1456 1454
1499 1499 1500 1500 1501 1501 1502 1502 1502 1502 1502 1502 1502 1502 1502 1502 1501 1501 1500 1500 1499 1498 1495 1491 1490 1488 1486 1484 1482 1480 1478 1475 1472 1470 1468 1466 1464 1462 1459 1457 1455 1453 1452
1496 1497 1497 1498 1498 1499 1499 1499 1499 1499 1499 1499 1499 1499 1499 1499 1498 1497 1497 1496 1495 1494 1492 1489 1487 1485 1483 1481 1479 1477 1475 1472 1470 1468 1466 1463 1461 1459 1457 1455 1453 1451 1449
1494 1494 1494 1495 1495 1496 1496 1496 1496 1496 1496 1496 1496 1496 1495 1495 1495 1494 1494 1493 1492 1491 1489 1487 1484 1482 1481 1479 1476 1474 1472 1470 1468 1465 1463 1461 1459 1457 1455 1452 1450 1448 1446
1491 1492 1492 1492 1493 1493 1493 1493 1493 1493 1493 1493 1493 1492 1492 1492 1491 1491 1490 1489 1488 1487 1486 1484 1481 1480 1478 1476 1474 1471 1468 1467 1465 1463 1461 1459 1457 1455 1453 1450 1448 1445 1444
1488 1489 1489 1490 1490 1490 1490 1490 1491 1490 1490 1490 1489 1489 1489 1488 1488 1488 1487 1486 1484 1483 1482 1480 1479 1477 1475 1473 1471 1469 1466 1464 1462 1460 1458 1456 1454 1452 1450 1448 1445 1443 1441
1485 1486 1486 1486 1487 1487 1487 1487 1487 1487 1487 1486 1486 1485 1485 1485 1485 1484 1484 1483 1482 1480 1479 1477 1476 1474 1472 1471 1469 1467 1465 1463 1459 1459 1456 1454 1453 1450 1448 1446 1444 1441 1439
1483 1483 1483 1483 1483 1484 1484 1484 1484 1484 1483 1483 1482 1482 1482 1481 1481 1481 1480 1479 1478 1477 1477 1475 1473 1471 1470 1469 1467 1465 1463 1461 1459 1457 1454 1451 1450 1448 1446 1444 1442 1440 1437
1480 1480 1480 1480 1480 1480 1480 1481 1480 1480 1480 1480 1479 1478 1478 1478 1478 1477 1476 1475 1474 1474 1473 1471 1470 1469 1468 1466 1465 1464 1462 1459 1457 1455 1454 1450 1448 1446 1444 1442 1440 1438 1435
1478 1478 1477 1477 1477 1477 1477 1477 1477 1477 1476 1476 1476 1475 1475 1474 1474 1474 1473 1472 1471 1470 1469 1468 1467 1466 1464 1463 1462 1460 1458 1456 1453 1452 1451 1449 1446 1444 1442 1440 1438 1436 1434
1475 1475 1474 1474 1474 1473 1474 1474 1474 1473 1473 1472 1472 1472 1472 1471 1471 1470 1469 1468 1467 1466 1465 1464 1464 1462 1461 1460 1459 1458 1456 1454 1452 1450 1449 1447 1445 1443 1440 1438 1436 1434 1432